Regional Weather Roundup
Issued by NWS

Home | Current Version | Previous Version | Text Only | Print | Product List | Glossary On
Versions: 1 2 3 4 5 6 7 8 9 10 11 12 13 14 15 16 17 18 19 20 21 22 23 24 25 26 27 28 29 30 31 32 33 34 35 36 37 38 39 40 41 42 43 44 45 46 47 48 49 50
836
ASUS44 KJAN 302103
RWRMS

MISSISSIPPI HOURLY WEATHER ROUNDUP
NATIONAL WEATHER SERVICE JACKSON MS
400 PM CDT SAT JUL 30 2016

NOTE: "FAIR: INDICATES FEW OR NO CLOUDS BELOW 12,000 FEET WITH NO
SIGNIFICANT WEATHER AND/OR OBSTRUCTIONS TO VISIBILITY.

MSZ001>002-007>008-010>013-018>021-025>028-034>036-302200-
NORTHWEST MISSISSIPPI

CITY           SKY/WX    TMP DP  RH WIND       PRES   REMARKS
CLEVELAND      FAIR      91  78  67 NW7       29.96S HX 105
GREENWOOD      SUNNY     89  70  53 NW5       29.97F HX  94
GREENVILLE     MOSUNNY   93  73  52 VRB5      29.96F HX 102
OXFORD         FAIR      86  68  54 W3        30.00S
WINONA         FAIR      90  73  57 CALM      29.97F HX  98
$$

MSZ003>006-009-014>017-022>024-029>033-037>039-302200-
NORTHEAST MISSISSIPPI

CITY           SKY/WX    TMP DP  RH WIND       PRES   REMARKS
ABERDEEN       FAIR      84  66  54 CALM      30.00F
COLUMBUS AFB   CLOUDY    84  79  83 E1        29.99S HX  96
TUPELO         CLOUDY    91  70  49 SW6       29.96F HX  96
$$

MSZ040-058-302200-
CENTRAL MISSISSIPPI

CITY           SKY/WX    TMP DP  RH WIND       PRES   REMARKS
JACKSON INTL   CLOUDY    87  74  64 CALM      30.00F HX  95
JACKSON HAWKNS MOSUNNY   89  74  60 CALM      30.00F HX  98
MADISON        FAIR      82  77  83 SE3       30.00S THUNDER HX  91
MERIDIAN KEY   CLOUDY    83  73  72 SW7       30.02R
MERIDIAN NAS   LGT RAIN  87  72  60 SW9       30.00R HX  93
VICKSBURG VKS  PTCLDY    93  75  55 CALM      29.97F HX 104
$$

MSZ059>079-302200-
SOUTH MISSISSIPPI

CITY           SKY/WX    TMP DP  RH WIND       PRES   REMARKS
BROOKHAVEN     FAIR     N/A N/A N/A SW6       30.01S
COLUMBIA       FAIR      91  75  59 S6G12     30.03S HX 102
HATTIESBURG    MOSUNNY   91  75  59 SW6       30.00S HX 101
MCCOMB         MOSUNNY   91  73  55 S6        30.00F HX  99
NATCHEZ        MOSUNNY   93  73  52 S5        29.99F HX 102
PINE BELT      MOSUNNY   91  70  49 S3        30.02S HX  97
$$

MSZ080>082-302200-
COASTAL MISSISSIPPI

CITY           SKY/WX    TMP DP  RH WIND       PRES   REMARKS
BAY ST LOUIS   TSTM      81  68  65 W12       30.00S
BILOXI         CLOUDY    90  77  66 S13       29.99F HX 103
PASCAGOULA     MOSUNNY   89  79  72 S10       29.99F HX 104
GULFPORT       CLOUDY    90  75  61 S10       29.99F HX 100
$$

LAZ007>009-015>016-023>026-302200-
NORTHEAST LOUISIANA

CITY           SKY/WX    TMP DP  RH WIND       PRES   REMARKS
BASTROP        FAIR      92  76  58 CALM      29.97F HX 104
TALLULAH/VBURG PTSUNNY   93  75  55 CALM      29.97F HX 104
VIDALIA        FAIR      91  74  56 S3        30.00F HX 100
$$




USA.gov is the U.S. government's official web portal to all federal, state and local government web resources and services.